Regional Weather Roundup
Issued by NWS

Home | Current Version | Previous Version | Graphics & Text | Print | Product List | Glossary On
Versions: 1 2 3 4 5 6 7 8 9 10 11 12 13 14 15 16 17 18 19 20 21 22 23 24 25 26 27 28 29 30 31 32 33 34 35 36 37 38 39 40 41 42 43 44 45 46 47
000
ASUS45 KCYS 020010
RWRWY

WYOMING REGIONAL WEATHER ROUNDUP
NATIONAL WEATHER SERVICE CHEYENNE WY
600 PM MDT WED OCT 01 2014

NOTE:  "FAIR" INDICATES FEW OR NO CLOUDS BELOW 12,000 FEET
WITH NO SIGNIFICANT WEATHER AND/OR OBSTRUCTIONS TO VISIBILITY.

WYZ001-020100-
YELLOWSTONE NATIONAL PARK

CITY           SKY/WX    TMP DP  RH WIND       PRES   REMARKS
LK YELLOWSTONE   N/A     36  31  82 CALM      30.11R
6HR MIN TEMP:  32; 6HR MAX TEMP:  40; 6HR PCP:  0.03;

W YELLOWSTONE  NOT AVBL

$$
WYZ002>013-054>058-071-098>099-020100-
NORTHERN WYOMING

CITY           SKY/WX    TMP DP  RH WIND       PRES   REMARKS
JACKSON        MOSUNNY   45  30  57 CALM      30.10R
CODY           MOCLDY    46  36  66 NE6       30.00R
GREYBULL       PTCLDY    56  32  40 NW7       29.97R
6HR MIN TEMP:  54; 6HR MAX TEMP:  59; 6HR PCP: TRACE;

WORLAND        PTCLDY    52  39  61 SW8       29.99R
6HR MIN TEMP:  49; 6HR MAX TEMP:  56; 6HR PCP:  0.01;

SHERIDAN       MOCLDY    52  35  52 NW14      29.97R
6HR MIN TEMP:  50; 6HR MAX TEMP:  58;

BUFFALO        MOCLDY    48  34  58 N12G26    29.99R
6HR MIN TEMP:  44; 6HR MAX TEMP:  52; 6HR PCP:  0.02;

GILLETTE       CLOUDY    50  37  61 NW10      29.96R
6HR MIN TEMP:  49; 6HR MAX TEMP:  52; 6HR PCP: TRACE;

HULETT         MOCLDY    52  36  54 W3        29.95
NEWCASTLE      FAIR      48  37  66 NW5       29.97

$$
WYZ014>020-022>026-101>103-020100-
CENTRAL WYOMING

CITY           SKY/WX    TMP DP  RH WIND       PRES   REMARKS
BIG PINEY      MOSUNNY   44  27  51 NW21G29   30.09R
6HR MIN TEMP:  43; 6HR MAX TEMP:  48;

PINEDALE       MOCLDY    43  27  52 NW22G29   30.08R
DUBOIS         MOCLDY    41  27  56 NW13G22   30.06R
LANDER         CLOUDY    40  36  86 CALM      30.05R
6HR MIN TEMP:  37; 6HR MAX TEMP:  42; 6HR PCP:  0.18;

RIVERTON       CLOUDY    42  37  82 SW10      30.06R
6HR MIN TEMP:  40; 6HR MAX TEMP:  45; 6HR PCP:  0.05;

CASPER         CLOUDY    42  38  85 N7        30.04R
6HR MIN TEMP:  41; 6HR MAX TEMP:  43; 6HR PCP:  0.08;

DOUGLAS        CLOUDY    46  39  76 N9        30.02R
6HR MIN TEMP:  44; 6HR MAX TEMP:  47; 6HR PCP:  0.02;


$$
WYZ021-027>030-104>119-020100-
SOUTHERN WYOMING

CITY           SKY/WX    TMP DP  RH WIND       PRES   REMARKS
EVANSTON       MOSUNNY   43  26  51 NW17      30.14R
6HR MIN TEMP:  37; 6HR MAX TEMP:  47; 6HR PCP:  0.06;

KEMMERER       PTCLDY    41  30  65 NW13G18   30.13R
FORT BRIDGER     N/A     38  34  85 NW18G32   30.17R WCI  28
ROCK SPRINGS   CLOUDY    43  32  65 W10       30.07
6HR MIN TEMP:  39; 6HR MAX TEMP:  50; 6HR PCP: TRACE;

DIXON          CLOUDY    40  37  86 E9        30.09S WCI  35
RAWLINS        MOCLDY    45  33  63 NW21G28   30.01R
6HR MIN TEMP:  44; 6HR MAX TEMP:  51;

SARATOGA       CLOUDY    41  32  70 SW15      30.04S
LARAMIE        CLOUDY    43  33  68 SW7       30.00R
6HR MIN TEMP:  33; 6HR MAX TEMP:  47; 6HR PCP:  0.06;

CHEYENNE       MOCLDY    42  36  79 N7        29.99R
6HR MIN TEMP:  38; 6HR MAX TEMP:  60; 6HR PCP:  0.22;

TORRINGTON     LGT RAIN  50  44  80 N5        29.96R
6HR MIN TEMP:  48; 6HR MAX TEMP:  63; 6HR PCP:  0.01;

PINE BLUFFS    LGT RAIN  41  37  87 NW14      29.99S

$$



USA.gov is the U.S. government's official web portal to all federal, state and local government web resources and services.